Flag for Jamaica Weather past 2 weeks in Montego Bay, Jamaica

Now
81 °F

Passing clouds.


Feels Like: 86 °F
Forecast: 80 / 89 °F
Wind: 5 mph from Southeast

Location: Montego Bay / Sangster

Current Time: Sep 1, 2014 at 7:10:42 AM

Latest Report: Sep 1, 2014 at 7:00 AM


Visibility: N/A

Pressure: 29.98 "Hg

Humidity: 84%

Dew point: 75 °F

Location of Montego BayLocation

Historic Weather in Montego Bay — Graph

°F

Montego Bay temperature yesterday

Maximum temperature yesterday: 90 °F (at 11:00 AM)
Minimum temperature yesterday: 77 °F (at 5:00 AM)
Average temperature yesterday: 83 °F

Past Weeks' High & Low Weather Summary

 TemperatureHumidityPressure
High91 °F (Aug 18, 2:00 PM)100% (Aug 27, 10:00 PM)30.01 "Hg (Aug 27, 10:00 PM)
Low75 °F (Aug 29, 4:00 PM)55% (Aug 18, 5:00 PM)29.71 "Hg (Aug 24, 3:00 AM)
Average83 °F83%29.90 "Hg
* Reported Aug 17 6:00 AM — Sep 1 6:00 AM, Montego Bay, Weather by CustomWeather, © 2014

Note: Actual official high and low records may vary slightly from our data, if they occured in-between our weather recording intervals... More about our weather records

Advertising

Montego Bay weather history for previous 24 hours

 ConditionsComfort  
Time TempWeatherWind HumidityBarometerVisibility
6:00 AM
Sep 1
81 °FPassing clouds.3 mph84%29.95 "HgN/A
5:00 AM79 °FPassing clouds.2 mph84%29.92 "HgN/A
4:00 AM79 °FPassing clouds.2 mph84%29.92 "HgN/A
3:00 AM79 °FPassing clouds.2 mph84%29.92 "HgN/A
2:00 AM81 °FPassing clouds.10 mph79%29.95 "HgN/A
1:00 AM79 °FPassing clouds.3 mph84%29.95 "HgN/A
12:00 AM79 °FPassing clouds.2 mph84%29.95 "HgN/A
11:00 PM
Aug 31
79 °FPassing clouds.2 mph84%29.98 "HgN/A
10:00 PM81 °FPassing clouds.2 mph84%29.98 "HgN/A
9:00 PM82 °FPassing clouds.6 mph84%29.98 "HgN/A
7:00 PM84 °FPassing clouds.9 mph79%29.95 "HgN/A
6:00 PM84 °FScattered clouds.13 mph79%29.92 "HgN/A
5:00 PM86 °FPartly sunny.15 mph75%29.92 "HgN/A
4:00 PM86 °FPartly sunny.14 mph84%29.95 "HgN/A
3:00 PM86 °FPartly sunny.14 mph79%29.95 "HgN/A
2:00 PM86 °FPartly sunny.15 mph79%29.95 "HgN/A
1:00 PM88 °FPartly sunny.15 mph79%29.98 "HgN/A
12:00 PM88 °FScattered clouds.14 mph79%30.01 "HgN/A
11:00 AM90 °FPassing clouds.13 mph75%30.01 "HgN/A
10:00 AM88 °FPassing clouds.15 mph75%30.01 "HgN/A
9:00 AM86 °FPassing clouds.10 mph79%30.01 "HgN/A
8:00 AM84 °FPassing clouds.9 mph84%29.98 "HgN/A
7:00 AM81 °FPassing clouds.3 mph89%29.95 "HgN/A
Weather by CustomWeather, © 2014

See weather overviewHow to use our weather pages